This is the latest recevied weather packets stored in our database for station/object E20YUC-1. If no packets are shown the sender has not sent any weather packets the latest 10 day(s).
| Time | Temp. | Humidity | Pressure | Rain* | Wind** | Luminosity | Snow |
|---|---|---|---|---|---|---|---|
| 1787626166 | 31.67° C | 67% | 996.2 hPa | 0 mm | 4.92 m/s, 0° | - | - |
| 1787625868 | 31.11° C | 67% | 996.2 hPa | 0 mm | 4.02 m/s, 0° | - | - |
| 1787625566 | 31.11° C | 68% | 996.1 hPa | 0 mm | 2.24 m/s, 0° | - | - |
| 1787625266 | 31.11° C | 69% | 996.3 hPa | 0 mm | 4.02 m/s, 0° | - | - |
| 1787624666 | 30.56° C | 69% | 996.2 hPa | 0 mm | 3.13 m/s, 0° | - | - |
| 1787624367 | 30.56° C | 70% | 996.3 hPa | 0 mm | 2.68 m/s, 0° | - | - |
| 1787624066 | 30.56° C | 70% | 996.3 hPa | 0 mm | 2.68 m/s, 0° | - | - |
| 1787623465 | 30° C | 70% | 996.2 hPa | 0 mm | 2.68 m/s, 0° | - | - |
| 1787623165 | 30° C | 71% | 996.3 hPa | 0 mm | 1.79 m/s, 180° | - | - |
| 1787622867 | 30° C | 71% | 996.3 hPa | 0 mm | 3.13 m/s, 0° | - | - |
| 1787622565 | 30° C | 72% | 996 hPa | 0 mm | 3.58 m/s, 0° | - | - |
| 1787622266 | 30° C | 72% | 996.2 hPa | 0 mm | 0 m/s | - | - |
| 1787621665 | 29.44° C | 72% | 996.3 hPa | 0 mm | 1.79 m/s, 0° | - | - |
| 1787621367 | 29.44° C | 72% | 996.3 hPa | 0 mm | 0 m/s | - | - |
| 1787621065 | 29.44° C | 72% | 996.3 hPa | 0 mm | 2.24 m/s, 0° | - | - |
| 1787620765 | 29.44° C | 72% | 996.1 hPa | 0 mm | 0 m/s | - | - |
| 1787620165 | 29.44° C | 72% | 995.8 hPa | 0 mm | 1.79 m/s, 0° | - | - |
| 1787619867 | 29.44° C | 72% | 995.8 hPa | 0 mm | 3.13 m/s, 0° | - | - |
| 1787619265 | 28.89° C | 73% | 995.7 hPa | 0 mm | 0.89 m/s, 0° | - | - |
| 1787618965 | 28.89° C | 39% | 995.8 hPa | 0 mm | 0.45 m/s, 0° | - | - |
| 1787618665 | 28.89° C | 73% | 995.7 hPa | 0 mm | 0 m/s | - | - |
| 1787618371 | 28.89° C | 73% | 995.7 hPa | 0 mm | 1.79 m/s, 22° | - | - |
| 1787618065 | 28.89° C | 74% | 995.6 hPa | 0 mm | 0.89 m/s, 0° | - | - |
| 1787617764 | 28.33° C | 74% | 995.6 hPa | 0 mm | 0 m/s | - | - |
| 1787617464 | 28.33° C | 74% | 995.6 hPa | 0 mm | 2.24 m/s, 0° | - | - |
* Rain latest hour (hover to see other rain measurements)
** Current wind speed in m/s (hover to see current wind gust speed)